status,avgMeasuredTime,avgSpeed,extID,medianMeasuredTime,TIMESTAMP,vehicleCount,_id,REPORT_ID
OK,113,19,822,113,2014-08-01T07:55:00,2,20746546,195631
OK,113,19,822,113,2014-08-01T08:00:00,2,20746877,195631
OK,80,27,822,80,2014-08-01T08:05:00,3,20747326,195631
OK,94,23,822,94,2014-08-01T08:10:00,7,20747699,195631
OK,94,23,822,94,2014-08-01T08:15:00,7,20748148,195631
OK,76,29,822,76,2014-08-01T08:20:00,6,20748597,195631
OK,76,29,822,76,2014-08-01T08:25:00,4,20749046,195631
OK,60,37,822,60,2014-08-01T08:30:00,3,20749495,195631
OK,63,35,822,63,2014-08-01T08:35:00,2,20749944,195631
OK,93,23,822,93,2014-08-01T08:40:00,5,20750393,195631
OK,93,23,822,93,2014-08-01T08:45:00,5,20750842,195631
OK,91,24,822,91,2014-08-01T08:50:00,4,20751291,195631
OK,85,26,822,85,2014-08-01T08:55:00,6,20751740,195631
OK,87,25,822,87,2014-08-01T09:00:00,5,20752189,195631
OK,106,20,822,106,2014-08-01T09:05:00,6,20752638,195631
OK,106,20,822,106,2014-08-01T09:10:00,3,20753087,195631
OK,71,31,822,71,2014-08-01T09:15:00,5,20753536,195631
OK,73,30,822,73,2014-08-01T09:20:00,4,20753985,195631
OK,97,22,822,97,2014-08-01T09:25:00,4,20754434,195631
OK,95,23,822,95,2014-08-01T09:30:00,5,20754883,195631
OK,94,23,822,94,2014-08-01T09:35:00,10,20755332,195631
OK,55,40,822,55,2014-08-01T09:40:00,4,20755781,195631
OK,60,37,822,60,2014-08-01T09:45:00,3,20756230,195631
OK,54,41,822,54,2014-08-01T09:50:00,1,20756679,195631
OK,81,27,822,81,2014-08-01T09:55:00,4,20757128,195631
OK,75,29,822,75,2014-08-01T10:00:00,6,20757577,195631
OK,76,29,822,76,2014-08-01T10:05:00,6,20758026,195631
OK,82,27,822,82,2014-08-01T10:10:00,5,20758475,195631
OK,73,30,822,73,2014-08-01T10:15:00,8,20758924,195631
OK,70,31,822,70,2014-08-01T10:20:00,2,20759373,195631
OK,76,29,822,76,2014-08-01T10:25:00,2,20759822,195631
OK,86,25,822,86,2014-08-01T10:30:00,2,20760271,195631
OK,89,24,822,89,2014-08-01T10:35:00,1,20760720,195631
OK,85,26,822,85,2014-08-01T10:40:00,6,20761169,195631
OK,85,26,822,85,2014-08-01T10:45:00,6,20761618,195631
OK,69,32,822,69,2014-08-01T10:50:00,1,20762067,195631
OK,102,21,822,102,2014-08-01T10:55:00,5,20762516,195631
OK,90,24,822,90,2014-08-01T11:00:00,9,20762965,195631
OK,85,26,822,85,2014-08-01T11:05:00,9,20763414,195631
OK,78,28,822,78,2014-08-01T11:10:00,8,20763863,195631
OK,102,21,822,102,2014-08-01T11:15:00,9,20764311,195631
OK,103,21,822,103,2014-08-01T11:20:00,6,20764760,195631
OK,80,27,822,80,2014-08-01T11:25:00,4,20765209,195631
OK,80,27,822,80,2014-08-01T11:30:00,4,20765658,195631
OK,91,24,822,91,2014-08-01T11:35:00,5,20766107,195631
OK,102,21,822,102,2014-08-01T11:40:00,5,20766556,195631
OK,92,24,822,92,2014-08-01T11:45:00,3,20767005,195631
OK,101,22,822,101,2014-08-01T11:50:00,6,20767454,195631
OK,86,25,822,86,2014-08-01T11:55:00,6,20767903,195631
OK,87,25,822,87,2014-08-01T12:00:00,6,20768352,195631
OK,97,22,822,97,2014-08-01T12:05:00,5,20768801,195631
OK,88,25,822,88,2014-08-01T12:10:00,2,20769250,195631
OK,78,28,822,78,2014-08-01T12:15:00,5,20769699,195631
OK,66,33,822,66,2014-08-01T12:20:00,4,20770148,195631
OK,83,26,822,83,2014-08-01T12:25:00,3,20770597,195631
OK,83,26,822,83,2014-08-01T12:30:00,4,20771046,195631
OK,100,22,822,100,2014-08-01T12:35:00,6,20771495,195631
OK,97,22,822,97,2014-08-01T12:40:00,9,20771944,195631
OK,105,21,822,105,2014-08-01T12:45:00,6,20772393,195631
OK,109,20,822,109,2014-08-01T12:50:00,8,20772842,195631
OK,90,24,822,90,2014-08-01T12:55:00,9,20773291,195631
OK,82,27,822,82,2014-08-01T13:00:00,5,20773740,195631
OK,99,22,822,99,2014-08-01T13:05:00,6,20774189,195631
OK,90,24,822,90,2014-08-01T13:10:00,8,20774638,195631
OK,82,27,822,82,2014-08-01T13:15:00,6,20775087,195631
OK,79,28,822,79,2014-08-01T13:20:00,5,20775536,195631
OK,86,25,822,86,2014-08-01T13:25:00,4,20775985,195631
OK,88,25,822,88,2014-08-01T13:30:00,2,20776434,195631
OK,89,24,822,89,2014-08-01T13:35:00,4,20776883,195631
OK,81,27,822,81,2014-08-01T13:40:00,4,20777332,195631
OK,75,29,822,75,2014-08-01T13:45:00,3,20777781,195631
OK,96,23,822,96,2014-08-01T13:50:00,4,20778230,195631
OK,105,21,822,105,2014-08-01T13:55:00,3,20778679,195631
OK,94,23,822,94,2014-08-01T14:00:00,2,20779128,195631
OK,101,22,822,101,2014-08-01T14:05:00,3,20779577,195631
OK,99,22,822,99,2014-08-01T14:10:00,4,20780026,195631
OK,103,21,822,103,2014-08-01T14:15:00,4,20780475,195631
OK,110,20,822,110,2014-08-01T14:20:00,3,20780924,195631
OK,110,20,822,110,2014-08-01T14:25:00,5,20781373,195631
OK,106,20,822,106,2014-08-01T14:30:00,4,20781822,195631
OK,70,31,822,70,2014-08-01T14:35:00,4,20782271,195631
OK,72,30,822,72,2014-08-01T14:40:00,4,20782720,195631
OK,79,28,822,79,2014-08-01T14:45:00,4,20783169,195631
OK,80,27,822,80,2014-08-01T14:50:00,4,20783618,195631
OK,73,30,822,73,2014-08-01T14:55:00,5,20784067,195631
OK,86,25,822,86,2014-08-01T15:00:00,4,20784516,195631
OK,90,24,822,90,2014-08-01T15:05:00,4,20784965,195631
OK,118,18,822,118,2014-08-01T15:10:00,3,20785414,195631
OK,120,18,822,120,2014-08-01T15:15:00,2,20785863,195631
OK,124,17,822,124,2014-08-01T15:20:00,1,20786312,195631
OK,118,18,822,118,2014-08-01T15:25:00,2,20786761,195631
OK,103,21,822,103,2014-08-01T15:30:00,5,20787210,195631
OK,103,21,822,103,2014-08-01T15:35:00,5,20787659,195631
OK,83,26,822,83,2014-08-01T15:40:00,2,20788108,195631
OK,67,33,822,67,2014-08-01T15:45:00,2,20788557,195631
OK,77,28,822,77,2014-08-01T15:50:00,4,20789006,195631
OK,91,24,822,91,2014-08-01T15:55:00,3,20789455,195631
OK,70,31,822,70,2014-08-01T16:00:00,1,20789904,195631
OK,73,30,822,73,2014-08-01T16:05:00,2,20790353,195631
OK,73,30,822,73,2014-08-01T16:10:00,2,20790802,195631
OK,71,31,822,71,2014-08-01T16:15:00,1,20791251,195631
OK,71,31,822,71,2014-08-01T16:20:00,0,20791700,195631
OK,71,31,822,71,2014-08-01T16:25:00,0,20792149,195631
OK,71,31,822,71,2014-08-01T16:30:00,0,20792598,195631
OK,71,31,822,71,2014-08-01T16:35:00,0,20793047,195631
OK,71,31,822,71,2014-08-01T16:40:00,0,20793496,195631
OK,71,31,822,71,2014-08-01T16:45:00,0,20793945,195631
OK,91,24,822,91,2014-08-01T16:50:00,1,20794394,195631
OK,91,24,822,91,2014-08-01T16:55:00,1,20794843,195631
OK,91,24,822,91,2014-08-01T17:00:00,0,20795292,195631
OK,76,29,822,76,2014-08-01T17:05:00,2,20795741,195631
OK,69,32,822,69,2014-08-01T17:10:00,2,20796190,195631
OK,33,67,822,33,2014-08-01T17:15:00,1,20796639,195631
OK,33,67,822,33,2014-08-01T17:20:00,0,20797088,195631
OK,81,27,822,81,2014-08-01T17:25:00,2,20797537,195631
OK,81,27,822,81,2014-08-01T17:30:00,2,20797986,195631
OK,81,27,822,81,2014-08-01T17:35:00,0,20798435,195631
OK,81,27,822,81,2014-08-01T17:40:00,0,20798884,195631
OK,81,27,822,81,2014-08-01T17:45:00,0,20799333,195631
OK,40,55,822,40,2014-08-01T17:50:00,1,20799782,195631
OK,63,35,822,63,2014-08-01T17:55:00,2,20800231,195631
OK,86,25,822,86,2014-08-01T18:00:00,1,20800680,195631
OK,86,25,822,86,2014-08-01T18:05:00,0,20801129,195631
OK,86,25,822,86,2014-08-01T18:10:00,0,20801578,195631
OK,86,25,822,86,2014-08-01T18:15:00,0,20802027,195631
OK,86,25,822,86,2014-08-01T18:20:00,0,20802476,195631
OK,86,25,822,86,2014-08-01T18:25:00,0,20802925,195631
OK,86,25,822,86,2014-08-01T18:30:00,0,20803374,195631
OK,86,25,822,86,2014-08-01T18:35:00,0,20803823,195631
OK,86,25,822,86,2014-08-01T18:40:00,0,20804272,195631
OK,86,25,822,86,2014-08-01T18:45:00,0,20804721,195631
OK,86,25,822,86,2014-08-01T18:50:00,0,20805170,195631
OK,86,25,822,86,2014-08-01T18:55:00,0,20805619,195631
OK,86,25,822,86,2014-08-01T19:00:00,0,20806068,195631
OK,86,25,822,86,2014-08-01T19:05:00,0,20806517,195631
OK,83,26,822,83,2014-08-01T19:10:00,2,20806966,195631
OK,53,41,822,53,2014-08-01T19:15:00,2,20807415,195631
OK,55,40,822,55,2014-08-01T19:20:00,1,20807864,195631
OK,55,40,822,55,2014-08-01T19:25:00,0,20808313,195631
OK,55,40,822,55,2014-08-01T19:30:00,0,20808762,195631
OK,71,31,822,71,2014-08-01T19:35:00,1,20809211,195631
OK,71,31,822,71,2014-08-01T19:40:00,1,20809660,195631
OK,64,34,822,64,2014-08-01T19:45:00,1,20810109,195631
OK,64,34,822,64,2014-08-01T19:50:00,1,20810558,195631
OK,64,34,822,64,2014-08-01T19:55:00,0,20811007,195631
OK,73,30,822,73,2014-08-01T22:00:00,0,20816736,195631
OK,73,30,822,73,2014-08-01T22:05:00,0,20817185,195631
OK,59,37,822,59,2014-08-02T00:00:00,0,20823175,195631
OK,59,37,822,59,2014-08-02T00:05:00,0,20823624,195631
OK,59,37,822,59,2014-08-02T00:10:00,0,20824073,195631
OK,73,30,822,73,2014-08-02T00:15:00,1,20824522,195631
OK,73,30,822,73,2014-08-02T00:20:00,1,20824971,195631
OK,73,30,822,73,2014-08-02T00:25:00,0,20825420,195631
OK,73,30,822,73,2014-08-02T00:30:00,0,20825869,195631
OK,80,27,822,80,2014-08-02T00:35:00,1,20826318,195631
OK,80,27,822,80,2014-08-02T00:40:00,1,20826767,195631
OK,51,43,822,51,2014-08-02T00:45:00,1,20827216,195631
OK,35,63,822,35,2014-08-02T00:50:00,1,20827665,195631
OK,35,63,822,35,2014-08-02T00:55:00,1,20828114,195631
OK,35,63,822,35,2014-08-02T01:00:00,0,20828563,195631
OK,35,63,822,35,2014-08-02T01:05:00,0,20829012,195631
OK,35,63,822,35,2014-08-02T01:10:00,0,20829461,195631
OK,35,63,822,35,2014-08-02T01:15:00,0,20829910,195631
OK,35,63,822,35,2014-08-02T01:20:00,0,20830359,195631
OK,35,63,822,35,2014-08-02T01:25:00,0,20830808,195631
OK,35,63,822,35,2014-08-02T01:30:00,0,20831257,195631
OK,35,63,822,35,2014-08-02T01:35:00,0,20831706,195631
OK,35,63,822,35,2014-08-02T01:40:00,0,20832155,195631
OK,37,60,822,37,2014-08-02T01:45:00,3,20832604,195631
OK,47,47,822,47,2014-08-02T01:50:00,1,20833053,195631
OK,47,47,822,47,2014-08-02T01:55:00,0,20833502,195631
OK,47,47,822,47,2014-08-02T02:00:00,0,20833951,195631
OK,47,47,822,47,2014-08-02T02:05:00,0,20834400,195631
OK,47,47,822,47,2014-08-02T02:10:00,0,20834849,195631
OK,86,25,822,86,2014-08-02T02:15:00,1,20835298,195631
OK,86,25,822,86,2014-08-02T02:20:00,0,20835747,195631
OK,86,25,822,86,2014-08-02T02:25:00,0,20836196,195631
OK,86,25,822,86,2014-08-02T02:30:00,0,20836645,195631
OK,86,25,822,86,2014-08-02T02:35:00,0,20837094,195631
OK,86,25,822,86,2014-08-02T02:40:00,0,20837543,195631
OK,86,25,822,86,2014-08-02T02:45:00,0,20837992,195631
OK,57,39,822,57,2014-08-02T02:50:00,1,20838441,195631
OK,57,39,822,57,2014-08-02T02:55:00,0,20838890,195631
OK,57,39,822,57,2014-08-02T03:00:00,0,20839339,195631
OK,57,39,822,57,2014-08-02T03:05:00,0,20839788,195631
OK,57,39,822,57,2014-08-02T03:10:00,0,20840237,195631
OK,57,39,822,57,2014-08-02T03:15:00,0,20840686,195631
OK,57,39,822,57,2014-08-02T03:20:00,0,20841135,195631
OK,57,39,822,57,2014-08-02T03:25:00,0,20841584,195631
OK,57,39,822,57,2014-08-02T03:30:00,0,20842033,195631
OK,57,39,822,57,2014-08-02T03:35:00,0,20842482,195631
OK,57,39,822,57,2014-08-02T03:40:00,0,20842931,195631
OK,57,39,822,57,2014-08-02T03:45:00,0,20843380,195631
OK,57,39,822,57,2014-08-02T03:50:00,0,20843829,195631
OK,57,39,822,57,2014-08-02T03:55:00,0,20844278,195631
OK,57,39,822,57,2014-08-02T04:50:00,0,20847992,195631
OK,99,22,822,99,2014-08-02T06:00:00,0,20851732,195631
OK,99,22,822,99,2014-08-02T06:05:00,0,20852181,195631
OK,99,22,822,99,2014-08-02T06:10:00,0,20852630,195631
OK,99,22,822,99,2014-08-02T06:15:00,0,20853079,195631
OK,99,22,822,99,2014-08-02T06:20:00,0,20853528,195631
OK,80,27,822,80,2014-08-02T06:25:00,2,20853977,195631
OK,78,28,822,78,2014-08-02T06:30:00,0,20854426,195631
OK,87,25,822,87,2014-08-02T06:35:00,1,20854875,195631
OK,87,25,822,87,2014-08-02T06:40:00,1,20855324,195631
OK,87,25,822,87,2014-08-02T06:45:00,0,20855773,195631
OK,87,25,822,87,2014-08-02T06:50:00,0,20856222,195631
OK,87,25,822,87,2014-08-02T06:55:00,0,20856671,195631
OK,87,25,822,87,2014-08-02T07:00:00,0,20857120,195631
OK,56,39,822,56,2014-08-02T07:05:00,1,20857569,195631
OK,56,39,822,56,2014-08-02T07:10:00,3,20858018,195631
OK,89,24,822,89,2014-08-02T07:15:00,2,20858467,195631
OK,141,15,822,141,2014-08-02T07:20:00,0,20858916,195631
OK,88,25,822,88,2014-08-02T07:25:00,2,20859365,195631
OK,86,25,822,86,2014-08-02T07:30:00,3,20859814,195631
OK,88,25,822,88,2014-08-02T07:35:00,0,20860263,195631
OK,88,25,822,88,2014-08-02T07:40:00,0,20860712,195631
OK,88,25,822,88,2014-08-02T07:45:00,0,20861161,195631
OK,88,25,822,88,2014-08-02T07:50:00,0,20861610,195631
OK,88,25,822,88,2014-08-02T07:55:00,1,20862059,195631
OK,88,25,822,88,2014-08-02T08:00:00,0,20862508,195631
OK,88,25,822,88,2014-08-02T08:05:00,0,20862957,195631
OK,88,25,822,88,2014-08-02T08:10:00,0,20863406,195631
OK,74,30,822,74,2014-08-02T08:15:00,1,20863855,195631
OK,83,26,822,83,2014-08-02T08:20:00,3,20864304,195631
OK,85,26,822,85,2014-08-02T08:25:00,1,20864753,195631
OK,85,26,822,85,2014-08-02T08:30:00,0,20865202,195631
OK,85,26,822,85,2014-08-02T08:35:00,0,20865651,195631
OK,88,25,822,88,2014-08-02T08:40:00,1,20866100,195631
OK,95,23,822,95,2014-08-02T08:45:00,2,20866549,195631
OK,87,25,822,87,2014-08-02T08:50:00,2,20866998,195631
OK,80,27,822,80,2014-08-02T08:55:00,3,20867447,195631
OK,88,25,822,88,2014-08-02T09:00:00,2,20867896,195631
OK,71,31,822,71,2014-08-02T09:05:00,1,20868345,195631
OK,71,31,822,71,2014-08-02T09:10:00,0,20868794,195631
OK,71,31,822,71,2014-08-02T09:15:00,0,20869243,195631
OK,89,24,822,89,2014-08-02T09:20:00,2,20869692,195631
OK,88,25,822,88,2014-08-02T09:25:00,4,20870141,195631
OK,58,38,822,58,2014-08-02T09:30:00,4,20870590,195631
OK,61,36,822,61,2014-08-02T09:35:00,5,20871039,195631
OK,87,25,822,87,2014-08-02T09:40:00,2,20871488,195631
OK,81,27,822,81,2014-08-02T09:45:00,1,20871937,195631
OK,86,25,822,86,2014-08-02T09:50:00,2,20872386,195631
OK,65,34,822,65,2014-08-02T09:55:00,6,20872835,195631
OK,51,43,822,51,2014-08-02T10:00:00,5,20873284,195631
OK,79,28,822,79,2014-08-02T10:05:00,2,20873733,195631
OK,79,28,822,79,2014-08-02T10:10:00,2,20874182,195631
OK,86,25,822,86,2014-08-02T10:15:00,4,20874631,195631
OK,86,25,822,86,2014-08-02T10:20:00,4,20875080,195631
OK,85,26,822,85,2014-08-02T10:25:00,3,20875529,195631
OK,70,31,822,70,2014-08-02T10:30:00,3,20875978,195631
OK,70,31,822,70,2014-08-02T10:35:00,1,20876427,195631
OK,70,31,822,70,2014-08-02T10:40:00,0,20876876,195631
OK,77,28,822,77,2014-08-02T10:45:00,1,20877325,195631
OK,77,28,822,77,2014-08-02T10:50:00,4,20877774,195631
OK,75,29,822,75,2014-08-02T10:55:00,6,20878223,195631
OK,88,25,822,88,2014-08-02T11:00:00,1,20878672,195631
OK,88,25,822,88,2014-08-02T11:05:00,1,20879121,195631
OK,108,20,822,108,2014-08-02T11:10:00,4,20879570,195631
OK,108,20,822,108,2014-08-02T11:15:00,4,20880019,195631
OK,109,20,822,109,2014-08-02T11:20:00,3,20880468,195631
OK,99,22,822,99,2014-08-02T11:25:00,2,20880917,195631
OK,89,24,822,89,2014-08-02T11:30:00,0,20881366,195631
OK,88,25,822,88,2014-08-02T11:35:00,1,20881815,195631
OK,88,25,822,88,2014-08-02T11:40:00,0,20882264,195631
OK,88,25,822,88,2014-08-02T11:45:00,0,20882713,195631
OK,114,19,822,114,2014-08-02T11:50:00,3,20883162,195631
OK,97,22,822,97,2014-08-02T11:55:00,4,20883611,195631
OK,70,31,822,70,2014-08-02T12:00:00,2,20884060,195631
OK,72,30,822,72,2014-08-02T12:05:00,2,20884509,195631
OK,91,24,822,91,2014-08-02T12:10:00,2,20884958,195631
OK,74,30,822,74,2014-08-02T12:15:00,7,20885407,195631
OK,76,29,822,76,2014-08-02T12:20:00,5,20885856,195631
OK,85,26,822,85,2014-08-02T12:25:00,3,20886305,195631
OK,79,28,822,79,2014-08-02T12:30:00,2,20886754,195631
OK,77,28,822,77,2014-08-02T12:35:00,4,20887203,195631
OK,80,27,822,80,2014-08-02T12:40:00,3,20887652,195631
OK,69,32,822,69,2014-08-02T12:45:00,0,20888101,195631
OK,69,32,822,69,2014-08-02T12:50:00,0,20888550,195631
OK,69,32,822,69,2014-08-02T12:55:00,0,20888999,195631
OK,69,32,822,69,2014-08-02T13:00:00,0,20889448,195631
OK,85,26,822,85,2014-08-02T13:05:00,2,20889897,195631
OK,78,28,822,78,2014-08-02T13:10:00,2,20890346,195631
OK,89,24,822,89,2014-08-02T13:15:00,4,20890795,195631
OK,87,25,822,87,2014-08-02T13:20:00,5,20891244,195631
OK,73,30,822,73,2014-08-02T13:25:00,6,20891693,195631
OK,77,28,822,77,2014-08-02T13:30:00,4,20892142,195631
OK,76,29,822,76,2014-08-02T13:35:00,2,20892591,195631
OK,68,32,822,68,2014-08-02T13:40:00,2,20893040,195631
OK,70,31,822,70,2014-08-02T13:45:00,4,20893489,195631
OK,83,26,822,83,2014-08-02T13:50:00,3,20893938,195631
OK,79,28,822,79,2014-08-02T13:55:00,2,20894387,195631
OK,79,28,822,79,2014-08-02T14:00:00,0,20894836,195631
OK,77,28,822,77,2014-08-02T14:05:00,3,20895285,195631
OK,77,28,822,77,2014-08-02T14:10:00,6,20895734,195631
OK,75,29,822,75,2014-08-02T14:15:00,3,20896183,195631
OK,82,27,822,82,2014-08-02T14:20:00,3,20896632,195631
OK,90,24,822,90,2014-08-02T14:25:00,2,20897081,195631
OK,85,26,822,85,2014-08-02T14:30:00,1,20897530,195631
OK,94,23,822,94,2014-08-02T14:35:00,2,20897979,195631
OK,71,31,822,71,2014-08-02T14:40:00,3,20898428,195631
OK,70,31,822,70,2014-08-02T14:45:00,2,20898877,195631
OK,70,31,822,70,2014-08-02T14:50:00,1,20899326,195631
OK,70,31,822,70,2014-08-02T14:55:00,0,20899775,195631
OK,67,33,822,67,2014-08-02T15:00:00,1,20900224,195631
OK,67,33,822,67,2014-08-02T15:05:00,1,20900673,195631
OK,68,32,822,68,2014-08-02T15:10:00,2,20901122,195631
OK,78,28,822,78,2014-08-02T15:15:00,4,20901571,195631
OK,75,29,822,75,2014-08-02T15:20:00,2,20902020,195631
OK,76,29,822,76,2014-08-02T15:25:00,0,20902469,195631
OK,75,29,822,75,2014-08-02T15:30:00,2,20902918,195631
OK,75,29,822,75,2014-08-02T15:35:00,2,20903367,195631
OK,75,29,822,75,2014-08-02T15:40:00,0,20903816,195631
OK,80,27,822,80,2014-08-02T15:45:00,1,20904265,195631
OK,80,27,822,80,2014-08-02T15:50:00,3,20904714,195631
OK,81,27,822,81,2014-08-02T15:55:00,3,20905163,195631
OK,76,29,822,76,2014-08-02T16:00:00,3,20905612,195631
OK,86,25,822,86,2014-08-02T16:05:00,2,20906061,195631
OK,96,23,822,96,2014-08-02T16:10:00,1,20906510,195631
OK,57,39,822,57,2014-08-02T16:15:00,2,20906959,195631
OK,55,40,822,55,2014-08-02T16:20:00,2,20907408,195631
OK,55,40,822,55,2014-08-02T16:25:00,2,20907857,195631
OK,61,36,822,61,2014-08-02T16:30:00,2,20908306,195631
OK,92,24,822,92,2014-08-02T16:35:00,3,20908755,195631
OK,92,24,822,92,2014-08-02T16:40:00,3,20909204,195631
OK,88,25,822,88,2014-08-02T16:45:00,1,20909653,195631
OK,88,25,822,88,2014-08-02T16:50:00,0,20910102,195631
OK,88,25,822,88,2014-08-02T16:55:00,0,20910551,195631
OK,88,25,822,88,2014-08-02T17:00:00,0,20911000,195631
OK,88,25,822,88,2014-08-02T17:05:00,0,20911449,195631
OK,65,34,822,65,2014-08-02T17:10:00,2,20911898,195631
OK,45,49,822,45,2014-08-02T17:15:00,1,20912347,195631
OK,45,49,822,45,2014-08-02T17:20:00,0,20912796,195631
OK,158,14,822,158,2014-08-02T17:25:00,1,20913245,195631
OK,158,14,822,158,2014-08-02T17:30:00,1,20913694,195631
OK,158,14,822,158,2014-08-02T17:35:00,0,20914143,195631
OK,76,29,822,76,2014-08-02T17:40:00,2,20914592,195631
OK,78,28,822,78,2014-08-02T17:45:00,3,20915041,195631
OK,83,26,822,83,2014-08-02T17:50:00,3,20915490,195631
OK,79,28,822,79,2014-08-02T17:55:00,2,20915939,195631
OK,86,25,822,86,2014-08-02T18:00:00,0,20916388,195631
OK,86,25,822,86,2014-08-02T18:05:00,0,20916837,195631
OK,86,25,822,86,2014-08-02T18:10:00,0,20917286,195631
OK,57,39,822,57,2014-08-02T18:15:00,2,20917735,195631
OK,57,39,822,57,2014-08-02T18:20:00,2,20918184,195631
OK,74,30,822,74,2014-08-02T18:25:00,1,20918633,195631
OK,74,30,822,74,2014-08-02T18:30:00,1,20919082,195631
OK,74,30,822,74,2014-08-02T18:35:00,0,20919531,195631
OK,74,30,822,74,2014-08-02T18:40:00,0,20919980,195631
OK,74,30,822,74,2014-08-02T18:45:00,0,20920429,195631
OK,74,30,822,74,2014-08-02T18:50:00,0,20920878,195631
OK,74,30,822,74,2014-08-02T18:55:00,0,20921327,195631
OK,85,26,822,85,2014-08-02T19:00:00,1,20921776,195631
OK,85,26,822,85,2014-08-02T19:05:00,1,20922225,195631
OK,67,33,822,67,2014-08-02T19:10:00,1,20922674,195631
OK,67,33,822,67,2014-08-02T19:15:00,0,20923123,195631
OK,74,30,822,74,2014-08-02T19:20:00,1,20923572,195631
OK,74,30,822,74,2014-08-02T19:25:00,1,20924021,195631
OK,74,30,822,74,2014-08-02T19:30:00,0,20924470,195631
OK,74,30,822,74,2014-08-02T19:35:00,0,20924919,195631
OK,74,30,822,74,2014-08-02T19:40:00,0,20925368,195631
OK,74,30,822,74,2014-08-02T19:45:00,0,20925817,195631
OK,56,39,822,56,2014-08-02T19:50:00,1,20926266,195631
OK,56,39,822,56,2014-08-02T19:55:00,0,20926715,195631
OK,137,16,822,137,2014-08-02T20:00:00,1,20927164,195631
OK,110,20,822,110,2014-08-02T20:05:00,2,20927613,195631
OK,84,26,822,84,2014-08-02T20:10:00,1,20928062,195631
OK,137,16,822,137,2014-08-02T20:15:00,0,20928511,195631
OK,137,16,822,137,2014-08-02T20:20:00,0,20928960,195631
OK,83,26,822,83,2014-08-02T20:25:00,1,20929409,195631
OK,81,27,822,81,2014-08-02T20:30:00,2,20929858,195631
OK,80,27,822,80,2014-08-02T20:35:00,0,20930307,195631
OK,63,35,822,63,2014-08-02T20:40:00,2,20930756,195631
OK,49,45,822,49,2014-08-02T20:45:00,1,20931205,195631
OK,93,23,822,93,2014-08-02T20:50:00,1,20931654,195631
OK,93,23,822,93,2014-08-02T20:55:00,1,20932103,195631
OK,93,23,822,93,2014-08-02T21:00:00,0,20932552,195631
OK,93,23,822,93,2014-08-02T21:05:00,0,20933001,195631
OK,77,28,822,77,2014-08-02T21:10:00,1,20933450,195631
OK,85,26,822,85,2014-08-02T21:15:00,2,20933899,195631
OK,93,23,822,93,2014-08-02T21:20:00,1,20934348,195631
OK,85,26,822,85,2014-08-02T21:25:00,1,20934797,195631
OK,85,26,822,85,2014-08-02T21:30:00,0,20935246,195631
OK,62,35,822,62,2014-08-02T21:35:00,2,20935695,195631
OK,48,46,822,48,2014-08-02T21:40:00,1,20936144,195631
OK,48,46,822,48,2014-08-02T21:45:00,0,20936593,195631
OK,48,46,822,48,2014-08-02T21:50:00,0,20937042,195631
OK,48,46,822,48,2014-08-02T21:55:00,0,20937491,195631
OK,48,46,822,48,2014-08-02T22:00:00,0,20937940,195631
OK,71,31,822,71,2014-08-02T22:05:00,1,20938389,195631
OK,71,31,822,71,2014-08-02T22:10:00,1,20938838,195631
OK,71,31,822,71,2014-08-02T22:15:00,0,20939287,195631
OK,71,31,822,71,2014-08-02T22:20:00,0,20939736,195631
OK,99,22,822,99,2014-08-02T22:25:00,1,20940185,195631
OK,99,22,822,99,2014-08-02T22:30:00,1,20940634,195631
OK,99,22,822,99,2014-08-02T22:35:00,0,20941083,195631
OK,99,22,822,99,2014-08-02T22:40:00,0,20941532,195631
OK,99,22,822,99,2014-08-02T22:45:00,0,20941981,195631
OK,99,22,822,99,2014-08-02T22:50:00,0,20942430,195631
OK,99,22,822,99,2014-08-02T22:55:00,0,20942879,195631
OK,99,22,822,99,2014-08-02T23:00:00,0,20943328,195631
OK,70,31,822,70,2014-08-02T23:10:00,1,20943777,195631
OK,70,31,822,70,2014-08-02T23:15:00,1,20944226,195631
OK,48,46,822,48,2014-08-02T23:20:00,1,20944675,195631
OK,48,46,822,48,2014-08-02T23:25:00,1,20945124,195631
OK,70,31,822,70,2014-08-02T23:30:00,0,20945573,195631
OK,70,31,822,70,2014-08-02T23:35:00,0,20946022,195631
OK,70,31,822,70,2014-08-02T23:40:00,0,20946471,195631
OK,81,27,822,81,2014-08-02T23:45:00,3,20946920,195631
OK,75,29,822,75,2014-08-02T23:50:00,4,20947369,195631
OK,69,32,822,69,2014-08-02T23:55:00,1,20947818,195631
OK,69,32,822,69,2014-08-03T00:00:00,0,20948267,195631
OK,69,32,822,69,2014-08-03T00:05:00,0,20948716,195631
OK,55,40,822,55,2014-08-03T00:10:00,1,20949165,195631
OK,142,15,822,142,2014-08-03T00:15:00,1,20949613,195631
OK,142,15,822,142,2014-08-03T00:20:00,0,20950062,195631
OK,142,15,822,142,2014-08-03T00:25:00,0,20950511,195631
OK,142,15,822,142,2014-08-03T00:30:00,0,20950960,195631
OK,47,47,822,47,2014-08-03T00:35:00,1,20951409,195631
OK,47,47,822,47,2014-08-03T00:40:00,0,20951858,195631
OK,47,47,822,47,2014-08-03T00:45:00,0,20952307,195631
OK,214,10,822,214,2014-08-03T00:50:00,1,20952756,195631
OK,214,10,822,214,2014-08-03T00:55:00,1,20953205,195631
OK,214,10,822,214,2014-08-03T01:00:00,0,20953654,195631
OK,214,10,822,214,2014-08-03T01:05:00,0,20954103,195631
OK,214,10,822,214,2014-08-03T01:10:00,0,20954552,195631
OK,214,10,822,214,2014-08-03T01:15:00,0,20955001,195631
OK,214,10,822,214,2014-08-03T01:20:00,0,20955450,195631
OK,214,10,822,214,2014-08-03T01:25:00,0,20955899,195631
OK,214,10,822,214,2014-08-03T01:30:00,0,20956348,195631
OK,76,29,822,76,2014-08-03T01:35:00,1,20956797,195631
OK,86,25,822,86,2014-08-03T01:40:00,2,20957246,195631